星链-34717 (STARLINK-34717)

导读 | 豆包AI

STARLINK-34717是美国于2025年7月31日发射的星链卫星,属于SpaceX打造的星链星座网络计划的组成部分。星链计划旨在构建覆盖全球的低轨卫星互联网星座,为全球各地用户提供高速、稳定的宽带互联网接入服务,该卫星进一步扩充了星链星座的在轨规模,推进全球卫星互联网覆盖进程。

基本信息
目录编号:
65060
目录名称:
STARLINK-34717
国际标识:
2025-165E
轨道中心:
EARTH
卫星名称:
星链-34717
卫星全名:
星链-34717 (STARLINK-34717)
卫星状态:
在轨 (已飞行226 天)
发射日期:
2025-07-31 UTC
国别 :
美国 (US)
星等 :
--
轨道信息
数据来源 国际轨道数据
星历时间: 2026-03-14T06:42:29+0800
15小时前
查看轨道信息
半长轴: 6927.601km
偏心率: 0.000062
轨道倾角: 97.604°
近地点辐角 115.610°
升交点赤经 151.467°
平近点角 244.519°
近地点: 549.034km
远地点: 549.894km
周期: 95.639分钟
每日圈数: 15.056656
详细信息
固有亮度:
5
最大亮度:
2.5
卫星平台:
Starlink V1.0
覆盖范围:
全球
运营商:
太空探索技术公司
运营商所在国:
美国
制造商(研发单位):
太空探索技术公司
制造商所在国:
美国
使用方式:
暂无
卫星简介
Starlink 计划是 SpaceX 推出的全球卫星互联网项目,通过发射低轨道卫星,为全球尤其是偏远地区提供高速、低延迟的互联网服务。自 2019 年起,Starlink 已部署数千颗卫星,旨在缩小全球数字鸿沟,推动互联网普及。该项目还为军事、航空等行业提供通信支持,带来广泛经济效益。
2D轨道图
3D轨道图
轨道高度分析图
轨道倾角分析图
轨道综合分析图
查看轨道综合分析图